Location: Allaines
(49.9632°N, 2.9458°E)
Time: 13:21:55
(UTC+00:00)

Resurs 01 Rocket - Pass Details

Date: 09 April 2020
Orbit: 635 x 643 km, 98.0° (Epoch: 26 May)

Event Time Altitude Azimuth Distance (km) Brightness Sun altitude
Exits shadow 20:55:16 15° 205° (SSW) 1,688 3.6 -20.8°
Maximum altitude 20:58:20 34° 264° (W) 1,053 3.0 -21.1°
Drops below altitude 10° 21:02:23 10° 330° (NNW) 2,038 5.3 -21.6°
Sets 21:04:47 0° 339° (NNW) 2,954 6.2 -21.9°
